Location: Ariel
(45.9570°N, 122.5700°W)
Time: 15:32:32
(UTC-07:00)

Transit 4A - Pass Details

Date: 27 July 2019
Orbit: 864 x 981 km, 66.8° (Epoch: 25 August)

Event Time Altitude Azimuth Distance (km) Brightness Sun altitude
Rises 09:08:18 0° 328° (NNW) 3,676 10.7 32.9°
Reaches altitude 10° 09:11:00 10° 334° (NNW) 2,714 10.1 33.3°
Maximum altitude 09:17:08 48° 49° (NE) 1,218 9.5 34.4°
Drops below altitude 10° 09:23:03 10° 123° (ESE) 2,629 11.4 35.4°
Sets 09:25:38 0° 129° (SE) 3,550 11.7 35.9°
